Regional Weather Roundup
Issued by NWS

Home | Current Version | Previous Version | Graphics & Text | Print | Product List | Glossary Off
Versions: 1 2 3 4 5 6 7 8 9 10 11 12 13 14 15 16 17 18 19 20 21 22 23 24 25 26 27 28 29 30 31 32 33 34 35 36 37 38 39 40 41 42 43 44 45 46 47 48 49 50

000
ASUS43 KMKX 281300
RWRWI

WISCONSIN REGIONAL WEATHER ROUNDUP
NATIONAL WEATHER SERVICE MILWAUKEE/SULLIVAN WI
800 AM CDT SUN MAY 28 2017

NOTE: "FAIR" INDICATES FEW OR NO CLOUDS BELOW 12,000 FEET WITH NO
SIGNIFICANT WEATHER AND/OR OBSTRUCTIONS TO VISIBILITY.

WIZ001-002-006>008-014>016-023>028-281400-
NORTHWEST WISCONSIN

CITY           SKY/WX    TMP DP  RH WIND       PRES   REMARKS
SUPERIOR ARPT  NOT AVBL
ASHLAND        CLOUDY    59  50  72 W7        29.68R
HAYWARD        CLOUDY    57  50  77 E3        29.69S
SIREN          CLOUDY    56  51  81 CALM      29.69F
CUMBERLAND     PTSUNNY   55  48  76 S3        29.70F
RICE LAKE      PTSUNNY   59  49  70 CALM      29.72R
CHETEK         PTSUNNY   56  52  84 CALM      29.70F
LADYSMITH      MOSUNNY   60  52  75 SE8       29.73S
EAU CLAIRE     NOT AVBL
MENOMONIE      SUNNY     61  51  70 S6        29.71S
NEW RICHMOND   MOSUNNY   59  49  68 W10       29.71S
OSCEOLA        PTSUNNY   59  51  74 W7        29.74S
$$

WIZ003>005-009-010-017-018-281400-
NORTH CENTRAL WISCONSIN

CITY           SKY/WX    TMP DP  RH WIND       PRES   REMARKS
MANITOWISH WTR CLOUDY    53  53 100 SE6       29.72F
ARBOR VITAE    CLOUDY    57  55  94 CALM      29.73F
WOODRUFF       CLOUDY    57  55  94 CALM      29.73F
RHINELANDER    CLOUDY    55  52  89 SE5       29.76F
EAGLE RIVER    LGT RAIN  53  53  97 CALM      29.75F
LAND O LAKES   LGT RAIN  54  53  96 CALM      29.76F
PHILLIPS       CLOUDY    55  53  94 SE6       29.71F
TOMAHAWK       CLOUDY    53  51  95 CALM      29.76F
MEDFORD        CLOUDY    55  51  89 CALM      29.74F
MERRILL        PTSUNNY   55  55  97 CALM      29.75F
$$

WIZ029-030-035-036-043>047-281400-
CENTRAL WISCONSIN

CITY           SKY/WX    TMP DP  RH WIND       PRES   REMARKS
WAUSAU         PTSUNNY   57  53  86 CALM      29.75F
MOSINEE        LGT RAIN  55  54  94 CALM      29.77F
MARSHFIELD     MOSUNNY   58  53  84 S5        29.75F
STEVENS POINT  CLOUDY    55  55 100 CALM      29.78F
WAUPACA        RAIN      59  56  89 W3        29.78S
WAUTOMA        LGT RAIN  58  56  93 CALM      29.78S
WISC RAPIDS    CLOUDY    58  56  93 S6        29.78F
CAMP DOUGLAS   CLOUDY    58  55  92 CALM      29.76F
$$

WIZ011>013-019>022-031-037>040-048>050-281400-
NORTHEAST WISCONSIN

CITY           SKY/WX    TMP DP  RH WIND       PRES   REMARKS
ANTIGO         LGT RAIN  53  52  97 W8        29.78S
SHAWANO        LGT RAIN  59  56  89 W5        29.77R
OCONTO         CLOUDY    58  55  88 CALM      29.73S
STURGEON BAY   CLOUDY    60  55  83 NW3       29.74R
GREEN BAY      HVY RAIN  58  57  97 SW6       29.77R FOG
MANITOWOC      NOT AVBL
APPLETON       DRIZZLE   55  55 100 SW6       29.77R FOG
CLINTONVILLE   DRIZZLE   57  54  88 W5        29.77S
OSHKOSH        LGT RAIN  57  55  93 CALM      29.78R FOG
$$

WIZ032>034-041-042-053>061-281400-
SOUTHWEST WISCONSIN

CITY           SKY/WX    TMP DP  RH WIND       PRES   REMARKS
LA CROSSE      SUNNY     63  57  81 SE8       29.76S
SPARTA         SUNNY     59  56  89 CALM      29.77F
VIROQUA        SUNNY     59  53  78 SW5       29.78S
BOSCOBEL       CLOUDY    61  57  87 CALM      29.79S
PRAIRIE DU CHI MOSUNNY   59  57  92 CALM      29.79S
PLATTEVILLE    CLOUDY    59  58  98 W3        29.80R
$$

WIZ056-057-062-063-064-067-068-281400-
SOUTH CENTRAL WISCONSIN

CITY           SKY/WX    TMP DP  RH WIND       PRES   REMARKS
REEDSBURG      CLOUDY    57  56  97 CALM      29.77F
BARABOO/DELLS  CLOUDY    56  55  93 CALM      29.78R
LONE ROCK      NOT AVBL
MINERAL POINT  PTSUNNY   59  59 100 CALM      29.80R
MADISON        CLOUDY    57  55  93 E5        29.77S
MIDDLETON      CLOUDY    59  56  91 CALM      29.79R
WATERTOWN      LGT RAIN  56  56 100 N6        29.77F
MONROE         CLOUDY    55  55 100 NE6       29.78R
JANESVILLE     RAIN      57  57 100 N8        29.77R
$$

WIZ051-052-058>065-066-070>072-281400-
SOUTHEAST WISCONSIN

CITY           SKY/WX    TMP DP  RH WIND       PRES   REMARKS
MILWAUKEE      LGT RAIN  62  56  80 NW3       29.76R
WAUKESHA       RAIN      57  57 100 NW8       29.78R FOG
MILWAUKEE/TIMM PTSUNNY   61  54  77 NW8       29.77R
RACINE         CLOUDY    61  55  81 N3        29.77R
KENOSHA        CLOUDY    61  56  83 SW3       29.75R
FOND DU LAC    RAIN      58  53  84 NW7       29.78R
SHEBOYGAN      RAIN      58  57  97 W10       29.78R FOG
WEST BEND      HVY RAIN  55  55 100 NW10      29.78R
JUNEAU         RAIN      56  55  95 N5        29.79S
$$

LSZ147-162-281400-
LAKE SUPERIOR

STATION/POSITION TIME  TEMP    WIND        PRES    WAVE
                       AIR SEA DIR/SP/G            HT/PER
                 (UTC) (F)     (DEG/KT/KT) (MB)    (FT/S)
W MID LAKE BUOY  1150   46 37  160/ 12/ 12 1005.1F   1
DEVILS ISLAND    1200   60     170/  8/ 11 1004.4F
PORT WING        1240   61     200/  5/  9 1005.1R
SAXON HARBOR     1240   62     170/  3/  6 1004.7F
$$

LMZ867-665-643>646-281400-
LAKE MICHIGAN

STATION/POSITION TIME  TEMP    WIND        PRES    WAVE
                       AIR SEA DIR/SP/G            HT/PER
                 (UTC) (F)     (DEG/KT/KT) (MB)    (FT/S)
CHAMBERS ISLAND  1240   58     270/  2/  3 1006.4S
N MID LAKE BUOY  1150   44 41  150/  4/  6 1007.4F
NORTHPORT PIER   1240   54     290/  1/  4 1006.4S
SISTER BAY       1051   55      CALM  /  3   N/A
ALGOMA LAKESHORE 1201             CALM       N/A
KEWAUNEE LAKESHO 1230   61     300/  6/  9 1006.3F
SHEBOYGAN LAKESH 1200   51     170/  6/  6 1006.4F
PORT WASHINGTON  1240   60     290/  7/ 12 1009.1R
ATWATER BUOY     1109   51     140/  8/  8 1006.8F
MILWAUKEE LAKESH 1230   61     290/  5/  6   N/A
S MID LAKE BUOY  1150   52 49   70/  4/  4 1006.8F   0
KENOSHA   LAKESH 1200   56        CALM     1006.8
$$

TC  - TEMPERATURE IN CELSIUS
VSB - VISIBILITY IN STATUTE MILES
WCI - WIND CHILL INDEX
HX  - HEAT INDEX





USA.gov is the U.S. government's official web portal to all federal, state and local government web resources and services.